Tracking 31027 objects as of 19-Jul-2025
HD Live streaming from Space Station
objects crossing your sky now

DMSP 5D-2 F13 DEB

Track DMSP 5D-2 F13 DEB now!
10-day predictions


NORAD ID: 40681
Int'l Code: 1995-015FV
Perigee: 782.1 km
Apogee: 787.6 km
Inclination: 98.7 °
Period: 100.4 minutes
Semi major axis: 7155 km
RCS: Unknown
Launch date: March 24, 1995
Source: United States (US)
Launch site: AIR FORCE WESTERN TEST RANGE (AFWTR)

Note: This is SATELLITE DEBRIS
Your satellite tracking list
STARLINK-31009
Track 1 satellite(s)




NASA's NSSDC Master Catalog

Two Line Element Set (TLE):
1 40681U 95015FV  25199.53099943  .00002946  00000-0  10667-2 0  9990
2 40681  98.7256 227.1219 0003849 355.4661   4.6488 14.34198067532830
Source of the keplerian elements: AFSPC